Location: *
(34.8620°S, 39.3380°E)
Time: 18:09:09
(UTC+00:00)

CENTAUR R/B - Pass Details

Date: 27 July 2021
Orbit: 730 x 1458 km, 63.5° (Epoch: 18 September)

Event Time Altitude Azimuth Distance (km) Brightness Sun altitude
Rises 03:26:23 0° 199° (SSW) 3,521 5.1 -11.4°
Reaches altitude 10° 03:29:51 10° 180° (S) 2,460 4.5 -10.7°
Maximum altitude 03:33:36 18° 138° (SE) 1,855 4.3 -10.0°
Drops below altitude 10° 03:37:06 10° 94° (E) 2,278 5.7 -9.3°
Sets 03:40:08 0° 75° (ENE) 3,162 7.7 -8.7°
